Location: Igri�s
(42.2144°N, 0.4320°W)
Time: 17:43:34
(UTC+00:00)

Cosmos 1602 - Pass Details

Date: 13 August 2020
Orbit: 513 x 535 km, 82.5° (Epoch: 18 September)

Event Time Altitude Azimuth Distance (km) Brightness Sun altitude
Exits shadow 21:03:20 50° 169° (S) 688 3.9 -19.5°
Maximum altitude 21:04:16 77° 97° (E) 554 3.6 -19.7°
Drops below altitude 10° 21:08:13 10° 11° (N) 1,798 6.8 -20.2°
Sets 21:10:23 0° 10° (N) 2,694 7.8 -20.5°
